Regional Weather Roundup
Issued by NWS

Home | Current Version | Previous Version | Graphics & Text | Print | Product List | Glossary On
Versions: 1 2 3 4 5 6 7 8 9 10 11 12 13 14 15 16 17 18 19 20 21 22 23 24 25 26 27 28 29 30 31 32 33 34 35 36 37 38 39 40 41 42 43 44 45 46 47 48 49 50
246
ASUS43 KLOT 250608
RWRIL

ILLINOIS REGIONAL WEATHER ROUNDUP
NATIONAL WEATHER SERVICE CHICAGO/ROMEOVILLE IL
100 AM CDT WED APR 25 2018

NOTE: "FAIR" INDICATES FEW OR NO CLOUDS BELOW 12,000 FEET WITH NO
SIGNIFICANT WEATHER AND/OR OBSTRUCTIONS TO VISIBILITY.

* THESE STATIONS ARE NOT UNDER NWS QUALITY CONTROL. THEY ALSO MAY NOT
  REPORT WEATHER SUCH AS PRECIPITATION OR FOG.

ILZ001-002-007-009-015-016-024-250700-
NORTHWEST ILLINOIS

CITY           SKY/WX    TMP DP  RH WIND       PRES   REMARKS
MOLINE         FAIR      62  39  42 N9        30.00S
6HR MIN TEMP:  57; 6HR MAX TEMP:  72;

STERLING*      FAIR      50  44  80 NE8       30.03R
SAVANNA*       MOCLDY    58  35  42 N8        30.05R
$$

ILZ003-004-008-010-011-017-018-250700-
NORTH CENTRAL ILLINOIS

CITY           SKY/WX    TMP DP  RH WIND       PRES   REMARKS
ROCKFORD       CLOUDY    51  45  79 NE15      30.09R
6HR MIN TEMP:  51; 6HR MAX TEMP:  69;

FREEPORT*      MOCLDY    51  45  79 E9        30.08R
ROCHELLE*      MOCLDY    50  46  86 NE10      30.06R
DE KALB*       FAIR      48  46  93 NE18      30.06R
PERU*          FAIR      53  46  77 NE3       30.02S
$$

ILZ005-006-012>014-019>023-250700-
NORTHEAST ILLINOIS

CITY           SKY/WX    TMP DP  RH WIND       PRES   REMARKS
CHICAGO-OHARE  CLOUDY    48  37  65 N14       30.04R
6HR MIN TEMP:  48; 6HR MAX TEMP:  59;

CHICAGO-MIDWAY CLOUDY    48  43  82 N15G22    30.03R
6HR MIN TEMP:  48; 6HR MAX TEMP:  59;

AURORA         FAIR      48  45  89 N7        30.03R
6HR MIN TEMP:  48; 6HR MAX TEMP:  64;

LANSING*       CLOUDY    43  43 100 N7        30.02R FOG
JOLIET*        FAIR      51  48  89 N8        30.02R
WAUKEGAN       CLOUDY    45  32  60 N15G31    30.06R
6HR MIN TEMP:  44; 6HR MAX TEMP:  53;

DUPAGE AIRPORT FAIR      48  47  96 N12       30.03R
6HR MIN TEMP:  45; 6HR MAX TEMP:  61;

KANKAKEE*      FAIR      46  44  95 N6        30.02R
WHEELING       MOCLDY    47  35  63 N13G20    30.07R
6HR MIN TEMP:  47; 6HR MAX TEMP:  57;

MORRIS*        FAIR      48  45  90 N5        30.02R
ROMEOVILLE*    FAIR      48  45  91 NE7       30.03R
NORTHERLY ISL    N/A     44  36  73 N15         N/A
$$

LMZ740>746-250700-
SOUTHERN LAKE MICHIGAN

STATION/POSITION SKY/WX   TEMP    WIND        PRES    VSBY  WAVE
                          AIR SEA DIR/SP/G                  HT/PER
                          (F)     (DEG/KT/KT) (MB)    (MI)  (FT/S)
HARRISON CRIB              40     340/ 23/ 25   N/A
BURNHAM HARBOR             44     330/ 17/ 19   N/A
CALUMET HARBOR             41     330/ 14/ 19 1016.3R
BURNS HARBOR               39     310/ 11/ 13 1016.9R
MICHIGAN CITY              42     260/  8/  9   N/A
ST. JOSEPH                 43 44  340/  4/  6 1016.3          1/ 3
$$

ILZ025>027-034>036-040-047-049-050-058-095>099-250700-
WEST-CENTRAL ILLINOIS

CITY           SKY/WX    TMP DP  RH WIND       PRES   REMARKS
QUINCY         CLOUDY    55  40  56 NW8       30.01F
GALESBURG*     FAIR      55  39  54 CALM      30.01F
MACOMB*        MOCLDY    54  37  51 NW9       30.03S
JACKSONVILLE*  PTCLDY    51  32  47 NW5       29.99S
PITTSFIELD*    PTCLDY    56  35  43 NW5       30.01F
$$

ILZ028>032-037-038-041>044-048-051>054-059>061-250700-
CENTRAL ILLINOIS

CITY           SKY/WX    TMP DP  RH WIND       PRES   REMARKS
PONTIAC        FAIR      46  46  98 NE3       30.02R
BLOOMINGTON    FAIR      53  50  89 CALM      30.01S
DECATUR        FAIR      48  47  96 CALM      29.99S FOG
PEORIA         FAIR      57  46  66 E5        29.99F
6HR MIN TEMP:  57; 6HR MAX TEMP:  73;

LACON*         FAIR      49  45  85 NE3       30.00S
LINCOLN*       FAIR      51  50  97 CALM      29.99S FOG
SPRINGFIELD    FAIR      51  47  86 E5        29.99S
6HR MIN TEMP:  50; 6HR MAX TEMP:  70;

TAYLORVILLE    FAIR      52  51  96 CALM      30.00S
6HR MIN TEMP:  50; 6HR MAX TEMP:  65;

$$

ILZ033-039-045-046-055>057-062-063-250700-
EAST-CENTRAL ILLINOIS

CITY           SKY/WX    TMP DP  RH WIND       PRES   REMARKS
CHAMPAIGN      FAIR      47  46  97 NW5       29.99S FOG
DANVILLE*      FAIR      47  47 100 W3        29.96S FOG
RANTOUL*       FAIR      51  51  98 CALM      29.99S
MATTOON        FAIR      48  48 100 NW6       29.98S FOG
PARIS*         FAIR      46  46 100 NW6       29.99S
$$

ILZ079-100>102-250700-
SOUTHWEST ILLINOIS

CITY           SKY/WX    TMP DP  RH WIND       PRES   REMARKS
ALTON          CLEAR     46  44  93 CALM      29.99S
CAHOKIA*       CLEAR     48  46  93 CALM      29.99S FOG
SPARTA*        CLEAR     49  49 100 CALM      30.00F
$$

ILZ064>066-069>071-074>076-080>082-084>086-088>090-092>094-250700-
SOUTH-CENTRAL ILLINOIS

CITY           SKY/WX    TMP DP  RH WIND       PRES   REMARKS
CARBONDALE     FAIR      50  49  96 CALM      29.99S
6HR MIN TEMP:  49; 6HR MAX TEMP:  61;

CAIRO*         FAIR      51  51  99 CALM      30.00F FOG
EFFINGHAM*       N/A     48  48 100 CALM      30.00F FOG
MARION         FAIR      51  51  99 W3        30.00S FOG
MT. VERNON       N/A     44  44 100 CALM      30.00R FOG
CENTRALIA*     CLEAR     51  51 100 CALM      29.99S FOG
SALEM*         FAIR      53  51  94 CALM      30.00S FOG
METROPOLIS*    FAIR      53  52  95 W3        30.00S
$$

ILZ067-068-072-073-078-083-087-091-250700-
SOUTHEAST ILLINOIS

CITY           SKY/WX    TMP DP  RH WIND       PRES   REMARKS
LAWRENCEVILLE  FAIR      52  51  97 MISG      29.97F FOG
FLORA*         FAIR      53  51  94 NW5       29.99S FOG
FAIRFIELD*     FAIR      52  52 100 CALM      29.97F
HARRISBURG*    FAIR      53  53 100 NW7       29.99S
ROBINSON*      FAIR      47  47 100 W3        29.98F FOG
CARMI*         FAIR      51  51 100 NW3       29.97S FOG
$$

ABBREVIATIONS USED IN REMARKS
   TC - TEMPERATURE IN CELSIUS
  WCI - WIND CHILL INDEX
   HX - HEAT INDEX
  VSB - VISIBILITY
$$





USA.gov is the U.S. government's official web portal to all federal, state and local government web resources and services.